This demonstration page uses our WeatherBlox Daily Observations layout. Learn more.

Left ArrowRight Arrow

41.86663, -103.66717

Hourly Observations for June 12, 2021

Temp ( °F °C ) Dew Point ( °F °C ) Humidity (%) Winds ( mph kmh ) Pressure ( in mb ) Visibility ( mi km ) Precip ( " mm )
12:53 am 00:53 Clear 57 13.9 37 2.8 47 47 ESE 9 15 29.98 1015 10 16 N/A
1:53 am 01:53 Clear 55 12.8 37 2.8 51 51 E 8 13 29.98 1015 10 16 N/A
2:53 am 02:53 Clear 56 13.3 36 2.2 47 47 E 9 15 29.97 1015 10 16 N/A
3:53 am 03:53 Clear 54 12.2 36 2.2 51 51 E 6 9 29.99 1016 10 16 N/A
4:53 am 04:53 Clear 52 11.1 35 1.7 53 53 E 6 9 30.01 1016 10 16 N/A
5:53 am 05:53 Sunny 51 10.6 37 2.8 59 59 ESE 6 9 30.01 1016 10 16 N/A
6:53 am 06:53 Sunny 56 13.3 40 4.4 55 55 E 9 15 30.01 1016 10 16 N/A
7:53 am 07:53 Sunny 63 17.2 42 5.6 47 47 ESE 13 20 30.00 1016 10 16 N/A
8:53 am 08:53 Sunny 71 21.7 45 7.2 39 39 ESE 8 13 30.00 1016 10 16 N/A
9:53 am 09:53 Sunny 76 24.4 48 8.9 37 37 ESE 12 19 29.98 1015 10 16 N/A
10:53 am 10:53 Sunny 85 29.4 46 7.8 26 26 S 12 19 29.95 1014 10 16 N/A
11:53 am 11:53 Sunny 89 31.7 44 6.7 21 21 S 12 19 29.92 1013 10 16 N/A
12:53 pm 12:53 Sunny 91 32.8 47 8.3 22 22 SSE 10 17 29.91 1013 10 16 N/A
1:53 pm 13:53 Sunny 92 33.3 46 7.8 21 21 SSE 13 20 29.89 1012 10 16 N/A
2:53 pm 14:53 Sunny 92 33.3 48 8.9 22 22 SSE 13 20 29.88 1012 10 16 N/A
3:53 pm 15:53 Sunny 93 33.9 48 8.9 21 21 SSE 14 22 29.87 1011 10 16 N/A
4:53 pm 16:53 Sunny 93 33.9 49 9.4 22 22 SSE 12 19 29.86 1011 10 16 N/A
5:53 pm 17:53 Sunny 90 32.2 50 10 25 25 SSE 16 26 29.86 1011 10 16 N/A
6:53 pm 18:53 Sunny 87 30.6 53 11.7 31 31 SSE 15 24 29.86 1011 10 16 N/A
7:53 pm 19:53 Sunny 83 28.3 54 12.2 37 37 SE 13 20 29.87 1012 10 16 N/A
8:53 pm 20:53 Clear 80 26.7 53 11.7 39 39 SE 12 19 29.87 1012 10 16 N/A
9:53 pm 21:53 Clear 75 23.9 56 13.3 52 52 ESE 10 17 29.91 1013 10 16 N/A
10:53 pm 22:53 Clear 73 22.8 57 13.9 57 57 ESE 10 17 29.90 1013 10 16 N/A
11:53 pm 23:53 Clear 71 21.7 58 14.4 63 63 ESE 12 19 29.90 1012 10 16 N/A

Powered by AerisWeather